[[{"header":{"parameterUnit":"m.s-1","parameterCategory":1,"la1":30.2991,"la2":30.254,"lo1":-89.0895,"lo2":-89.0444,"dy":0.0017,"dx":0.0017,"nx":28,"ny":28,"refTime":"2023-11-10T03:00:00:Z","depth":0,"parameterNumber":2,"parameterNumberName":"U-component_of_WINDS"},"data":[0,0,0,0,0,0,0,0,0,0,0,0,0,0,0,0,0,0,0,0,0,0,0,0,0,0,0,0,0,0,0,0,0,0,0,0,0,0,0,0,0,0,0,0,0,0,0,0,0,0,0,0,0,0,0,0,0,0,-2.9089,-2.909,0,-2.9199,-2.92,-2.9201,-2.9168,-2.9165,-2.9163,-2.9161,-2.9276,-2.9281,-2.9286,0,0,0,0,0,0,0,0,0,0,0,0,0,-2.8854,-2.8858,-2.9089,-2.909,-2.9092,-2.9199,-2.92,-2.9202,-2.9168,-2.9165,-2.9163,-2.916,-2.9274,-2.9281,-2.9287,0,0,0,0,0,0,0,0,0,0,0,0,0,-2.8959,-2.886,-2.9089,-2.9088,-2.9089,-2.9198,-2.92,-2.9202,-2.9169,-2.9165,-2.9162,-2.9159,-2.9272,-2.928,-2.9288,-2.9405,0,0,-2.9312,-2.9315,0,0,0,0,0,0,0,0,-2.8953,-2.8968,-2.9087,-2.9088,-2.9089,-2.9166,-2.9159,-2.927,-2.917,-2.9139,-2.9161,-2.9157,-2.9242,-2.9253,-2.9281,-2.9411,-2.9416,-2.9312,-2.9317,-2.932,-2.9323,0,0,0,0,0,0,0,-2.8946,-2.8963,-2.9133,-2.9088,-2.909,-2.9083,-2.9094,-2.918,-2.9209,-2.9141,-2.9139,-2.9152,-2.9243,-2.9273,-2.9283,-2.9418,-2.9312,-2.9319,-2.9324,-2.9327,-2.9653,-2.9656,0,0,0,0,0,0,-2.8937,-2.8957,-2.9129,-2.9136,-2.9011,-2.909,-2.9103,-2.9145,-2.9208,-2.9214,-2.9155,-2.915,-2.9262,-2.9274,-2.9287,-2.9431,-2.932,-2.9328,-2.9332,-2.9649,-2.9653,-2.9658,0,0,0,0,0,0,-2.8932,-2.8953,-2.9125,-2.9046,-2.9067,-2.9098,-2.9146,-2.9149,-2.918,-2.9218,-2.9223,-2.9181,-2.9259,-2.9276,-2.9377,-2.9435,-2.9331,-2.9338,-2.9644,-2.965,-2.9656,-2.9719,0,0,0,0,0,0,-2.8926,-2.8951,-2.8995,-2.9047,-2.9072,-2.9211,-2.9149,-2.9154,-2.9193,-2.9188,-2.9244,-2.925,-2.9258,-2.9365,-2.9385,-2.9444,-2.9344,-2.9639,-2.9647,-2.9654,-2.9712,-2.9726,-2.9739,0,0,0,0,0,-2.8917,-2.9009,-2.8998,-2.9019,-2.9127,-2.9215,-2.9229,-2.9235,-2.9198,-2.9243,-2.9268,-2.9248,-2.9425,-2.9376,-2.9397,-2.9459,-2.9635,-2.9645,-2.9653,-2.9706,-2.9723,-2.9738,0,0,0,0,0,0,-2.8964,-2.9016,-2.9004,-2.9115,-2.9161,-2.9209,-2.9266,-2.9253,-2.9311,-2.9304,-2.9311,-2.9324,-2.9427,-2.9453,-2.9398,-2.9578,-2.9525,-2.9538,-2.9557,-2.9575,-2.9588,-2.958,-2.9351,0,0,0,0,0,-2.8987,-2.9052,-2.9094,-2.9188,-2.9212,-2.9235,-2.9273,-2.9275,-2.9323,-2.9342,-2.9374,-2.9423,-2.949,-2.9533,-2.9596,-2.9715,-2.9728,-2.9769,-2.9782,-2.9793,-2.9805,-2.9872,-2.9891,-2.9687,-2.9687,-2.9687,0,0,-2.9035,-2.9071,-2.9113,-2.9199,-2.9234,-2.9304,-2.9252,-2.9327,-2.9379,-2.9354,-2.9451,-2.9477,-2.9531,-2.9642,-2.9692,-2.9667,-2.9864,-2.9804,-2.9812,-2.9819,-2.9883,-2.9903,-2.992,-2.9693,-2.9692,-2.9691,0,0,-2.9159,-2.9192,-2.9275,-2.9312,-2.9366,-2.9382,-2.9402,-2.9453,-2.9469,-2.9566,-2.9549,-2.9612,-2.9726,-2.9766,-2.9802,-2.9943,-2.9927,-2.9963,-3.0034,-3.0099,-3.0115,-3.0129,-3.0182,-3.02,-2.9975,-2.9975,-2.9975,0,-2.9212,-2.9315,-2.9319,-2.9396,-2.9436,-2.9416,-2.9501,-2.9537,-2.961,-2.9638,-2.9608,-2.9752,-2.9787,-2.9908,-2.9943,-2.9971,-2.9996,-2.9957,-3.0112,-3.0127,-3.014,-3.019,-3.021,-2.9979,-2.9979,-2.9978,-2.9978,0,-2.9379,-2.9451,-2.9511,-2.9582,-2.9628,-2.9708,-2.9726,-2.9773,-2.977,-2.9789,-2.989,-2.9932,-3.0004,-3.0033,-3.0031,-3.0155,-3.0137,-3.011,-3.0057,-3.0164,-3.0211,-3.023,-2.9985,-2.9983,-2.9982,-2.9981,0,0,-2.9534,-2.9607,-2.963,-2.9662,-2.9722,-2.9778,-2.9859,-2.9929,-2.997,-3.0021,-3.0091,-3.0188,-3.0164,-3.0204,-3.0207,-3.0264,-3.0376,-3.023,-3.0231,-3.0257,-3.0517,-3.0539,-3.0561,-3.0366,-3.0369,-3.0372,-3.0514,0,-2.9664,-2.9805,-2.9812,-2.9941,-3.0009,-2.9992,-3.0063,-3.0108,-3.0128,-3.019,-3.0212,-3.0282,-3.0243,-3.0268,-3.0324,-3.0351,-3.0429,-3.034,-3.0432,-3.0436,-3.042,-3.0585,-3.0607,-3.0738,-3.0532,-3.0535,-3.0537,0,-2.9834,-2.9891,-3.0027,-3.0079,-3.0108,-3.0171,-3.0237,-3.0295,-3.0347,-3.0358,-3.0404,-3.0399,-3.0484,-3.0427,-3.0545,-3.0485,-3.0523,-3.0542,-3.0548,-3.0558,-3.0494,-3.0601,-3.078,-3.0801,-3.0566,-3.0564,-3.0562,0,-2.9937,-3.0047,-3.0143,-3.0171,-3.0234,-3.0279,-3.0308,-3.0356,-3.0398,-3.0457,-3.0485,-3.0552,-3.059,-3.0643,-3.0657,-3.0614,-3.0776,-3.072,-3.0789,-3.0789,-3.0825,-3.0823,-3.1014,-3.0847,-3.0847,-3.0846,-3.0846,0,-3.0082,-3.0166,-3.019,-3.0249,-3.0344,-3.0352,-3.0445,-3.0471,-3.0514,-3.058,-3.0569,-3.0631,-3.0645,-3.071,-3.0722,-3.082,-3.0836,-3.0849,-3.0851,-3.0851,-3.0849,-3.0877,-3.0869,-3.0852,-3.085,-3.0849,-3.0849,0,-3.0212,-3.0231,-3.0335,-3.0386,-3.0401,-3.0469,-3.0513,-3.0571,-3.059,-3.0673,-3.0693,-3.0724,-3.08,-3.0819,-3.091,-3.0919,-3.1034,-3.1027,-3.1017,-3.1017,-3.1086,-3.108,-3.1303,-3.1334,-3.1145,-3.1146,-3.1148,0,-3.0304,-3.0368,-3.0426,-3.0469,-3.05,-3.0568,-3.0612,-3.0623,-3.0669,-3.0734,-3.0785,-3.086,-3.092,-3.1043,-3.1075,-3.1145,-3.1141,-3.1214,-3.1151,-3.115,-3.1144,-3.1141,-3.1149,-3.1227,-3.1229,-3.123,-3.1231,0,-3.0466,-3.0472,-3.0535,-3.0602,-3.0655,-3.0708,-3.0759,-3.0795,-3.0813,-3.0866,-3.0944,-3.0991,-3.1084,-3.116,-3.1231,-3.1262,-3.1251,-3.1251,-3.1271,-3.1272,-3.1264,-3.1271,-3.1051,-3.1246,-3.1245,-3.1243,-3.1243,-3.1242,-3.0581,-3.0638,-3.0688,-3.0759,-3.0799,-3.0848,-3.0905,-3.0932,-3.0997,-3.1073,-3.1076,-3.1161,-3.1214,-3.1308,-3.1344,-3.1412,-3.139,-3.1418,-3.1426,-3.1433,-3.144,-3.1252,-3.1424,-3.1424,-3.1424,-3.1423,-3.1423,0,-3.0743,-3.0775,-3.084,-3.0913,-3.0969,-3.0953,-3.1009,-3.1058,-3.1133,-3.1182,-3.1242,-3.1333,-3.1407,-3.1445,-3.1518,-3.1566,-3.1563,-3.1585,-3.1582,-3.159,-3.1454,-3.1431,-3.1586,-3.1586,-3.1586,-3.1586,-3.1586,-3.1586,-3.0835,-3.0931,-3.0945,-3.1062,-3.1094,-3.1176,-3.121,-3.1256,-3.1296,-3.1397,-3.1458,-3.1482,-3.1528,-3.1605,-3.1673,-3.1682,-3.1711,-3.1736,-3.1743,-3.1616,-3.1599,-3.1583,-3.1561,-3.1742,-3.1742,-3.1873,-3.1874,-3.1875]},{"header":{"parameterUnit":"m.s-1","parameterCategory":1,"la1":30.2991,"la2":30.254,"lo1":-89.0895,"lo2":-89.0444,"dy":0.0017,"dx":0.0017,"nx":28,"ny":28,"refTime":"2023-11-10T03:00:00:Z","depth":0,"parameterNumber":3,"parameterNumberName":"V-component_of_WINDS"},"data":[0,0,0,0,0,0,0,0,0,0,0,0,0,0,0,0,0,0,0,0,0,0,0,0,0,0,0,0,0,0,0,0,0,0,0,0,0,0,0,0,0,0,0,0,0,0,0,0,0,0,0,0,0,0,0,0,0,0,-5.6903,-5.6903,0,-5.6886,-5.6885,-5.6885,-5.6771,-5.6768,-5.6765,-5.6763,-5.6746,-5.6748,-5.675,0,0,0,0,0,0,0,0,0,0,0,0,0,-5.6838,-5.684,-5.6903,-5.6903,-5.6903,-5.6886,-5.6885,-5.6885,-5.6771,-5.6768,-5.6765,-5.6761,-5.6745,-5.6748,-5.675,0,0,0,0,0,0,0,0,0,0,0,0,0,-5.6848,-5.6841,-5.6903,-5.6844,-5.6838,-5.6886,-5.6885,-5.6885,-5.6772,-5.6768,-5.6764,-5.676,-5.6744,-5.6748,-5.6751,-5.6854,0,0,-5.6761,-5.6762,0,0,0,0,0,0,0,0,-5.6848,-5.6851,-5.6853,-5.6848,-5.6842,-5.6826,-5.6856,-5.6875,-5.6773,-5.6797,-5.6763,-5.6758,-5.6776,-5.6776,-5.6782,-5.6853,-5.6853,-5.6761,-5.6763,-5.6764,-5.6765,0,0,0,0,0,0,0,-5.6847,-5.6851,-5.6896,-5.6853,-5.6846,-5.6818,-5.6815,-5.6859,-5.681,-5.6795,-5.6786,-5.6786,-5.6772,-5.678,-5.6781,-5.6852,-5.6761,-5.6764,-5.6766,-5.6767,-5.7007,-5.7011,0,0,0,0,0,0,-5.6855,-5.6851,-5.6897,-5.6896,-5.6835,-5.6823,-5.6819,-5.6835,-5.681,-5.6802,-5.679,-5.6781,-5.6776,-5.6778,-5.678,-5.6899,-5.6764,-5.6767,-5.6769,-5.7002,-5.7008,-5.7013,0,0,0,0,0,0,-5.6854,-5.686,-5.6897,-5.6871,-5.6874,-5.6828,-5.6848,-5.6837,-5.6844,-5.6805,-5.6796,-5.6806,-5.6773,-5.6776,-5.6836,-5.6897,-5.6769,-5.6772,-5.6997,-5.7004,-5.701,-5.7139,0,0,0,0,0,0,-5.6853,-5.686,-5.6899,-5.6873,-5.6876,-5.6954,-5.6851,-5.684,-5.685,-5.6838,-5.6818,-5.6811,-5.677,-5.6832,-5.684,-5.6899,-5.6774,-5.6991,-5.7,-5.7008,-5.7129,-5.7149,-5.7166,0,0,0,0,0,-5.6851,-5.6937,-5.6902,-5.6908,-5.6923,-5.6958,-5.696,-5.691,-5.6855,-5.6894,-5.6869,-5.6812,-5.6889,-5.6839,-5.6847,-5.6908,-5.6987,-5.6998,-5.7007,-5.712,-5.7145,-5.7165,0,0,0,0,0,0,-5.6972,-5.6932,-5.6893,-5.6973,-5.697,-5.6939,-5.6986,-5.6938,-5.695,-5.6939,-5.6877,-5.6873,-5.6943,-5.6932,-5.6877,-5.7007,-5.6928,-5.694,-5.7012,-5.7035,-5.7053,-5.7054,-5.6777,0,0,0,0,0,-5.7008,-5.7039,-5.7003,-5.7077,-5.7077,-5.7032,-5.7045,-5.7007,-5.7002,-5.7,-5.6979,-5.6976,-5.6999,-5.7016,-5.7036,-5.7126,-5.712,-5.7172,-5.7191,-5.7206,-5.7217,-5.7264,-5.7287,-5.7045,-5.7045,-5.7045,0,0,-5.7083,-5.7065,-5.7089,-5.7101,-5.7094,-5.7128,-5.7032,-5.7072,-5.7096,-5.7006,-5.7062,-5.7047,-5.7039,-5.7115,-5.7148,-5.7108,-5.7283,-5.7219,-5.7232,-5.7234,-5.7277,-5.73,-5.732,-5.7052,-5.7051,-5.705,0,0,-5.7236,-5.7226,-5.7286,-5.7281,-5.7271,-5.724,-5.7255,-5.7231,-5.7218,-5.7273,-5.7205,-5.7234,-5.7275,-5.7273,-5.7277,-5.7429,-5.7377,-5.7437,-5.7534,-5.7581,-5.76,-5.7616,-5.767,-5.7691,-5.7448,-5.7448,-5.7449,0,-5.7331,-5.7379,-5.7323,-5.7368,-5.7375,-5.7294,-5.7354,-5.7352,-5.735,-5.7357,-5.7311,-5.7362,-5.7351,-5.7425,-5.7462,-5.7468,-5.7483,-5.7439,-5.7601,-5.7617,-5.7632,-5.7683,-5.7703,-5.7456,-5.7455,-5.7454,-5.7453,0,-5.7495,-5.753,-5.758,-5.7579,-5.7591,-5.7644,-5.7596,-5.7616,-5.7576,-5.7551,-5.7608,-5.7592,-5.7606,-5.7621,-5.7584,-5.769,-5.7665,-5.7612,-5.7532,-5.7663,-5.771,-5.7729,-5.7466,-5.7464,-5.7461,-5.746,0,0,-5.7726,-5.7693,-5.7712,-5.771,-5.7693,-5.7719,-5.7767,-5.7781,-5.7799,-5.78,-5.7839,-5.7876,-5.7826,-5.7831,-5.7792,-5.7832,-5.7954,-5.7773,-5.7772,-5.7808,-5.807,-5.8111,-5.8134,-5.7919,-5.7922,-5.7925,-5.8071,0,-5.7873,-5.7954,-5.7905,-5.7993,-5.8024,-5.7947,-5.7989,-5.7983,-5.796,-5.7983,-5.7958,-5.7985,-5.7917,-5.7919,-5.7956,-5.7931,-5.8006,-5.792,-5.7955,-5.7957,-5.796,-5.8159,-5.8202,-5.834,-5.8089,-5.8092,-5.8094,0,-5.8056,-5.8064,-5.8156,-5.8131,-5.8143,-5.8181,-5.8189,-5.8212,-5.8204,-5.8185,-5.819,-5.8141,-5.8187,-5.8108,-5.8171,-5.8114,-5.8125,-5.8115,-5.8119,-5.8121,-5.8034,-5.8166,-5.8383,-5.8404,-5.8122,-5.812,-5.8118,0,-5.8216,-5.8249,-5.8307,-5.8308,-5.8282,-5.8311,-5.8301,-5.8289,-5.83,-5.8307,-5.8314,-5.8327,-5.8334,-5.8346,-5.8301,-5.8248,-5.837,-5.8288,-5.8356,-5.8357,-5.8385,-5.8384,-5.8608,-5.8392,-5.8392,-5.8392,-5.8391,0,-5.8386,-5.8444,-5.8378,-5.8415,-5.8478,-5.8421,-5.8486,-5.8468,-5.8457,-5.8489,-5.8423,-5.8454,-5.8393,-5.8419,-5.8384,-5.8442,-5.8445,-5.8431,-5.8421,-5.8437,-5.8439,-5.8444,-5.8434,-5.8397,-5.8396,-5.8395,-5.8394,0,-5.8575,-5.8533,-5.8591,-5.8561,-5.8555,-5.8603,-5.8577,-5.8609,-5.8581,-5.8622,-5.8628,-5.8585,-5.8611,-5.8568,-5.8589,-5.8566,-5.8646,-5.8621,-5.8649,-5.8641,-5.8712,-5.8706,-5.8947,-5.8975,-5.8742,-5.8744,-5.8746,0,-5.8686,-5.8729,-5.8703,-5.8719,-5.8713,-5.874,-5.875,-5.8695,-5.8709,-5.8703,-5.8736,-5.8756,-5.877,-5.8815,-5.8786,-5.8802,-5.8777,-5.886,-5.8779,-5.8794,-5.8779,-5.8777,-5.8781,-5.8877,-5.888,-5.8882,-5.8884,0,-5.8888,-5.8865,-5.8883,-5.8893,-5.8908,-5.8913,-5.8915,-5.8932,-5.8873,-5.8893,-5.8918,-5.8928,-5.8949,-5.897,-5.8979,-5.8969,-5.8918,-5.891,-5.8926,-5.8944,-5.8958,-5.8951,-5.8694,-5.8905,-5.8903,-5.8901,-5.89,-5.8899,-5.9042,-5.9077,-5.9063,-5.9085,-5.908,-5.9082,-5.9111,-5.9086,-5.9106,-5.9118,-5.9084,-5.9118,-5.9108,-5.9114,-5.911,-5.9135,-5.9099,-5.9123,-5.9129,-5.9136,-5.9147,-5.8953,-5.9137,-5.9136,-5.9135,-5.9135,-5.9134,0,-5.9241,-5.9228,-5.9249,-5.9252,-5.9269,-5.9217,-5.9216,-5.9234,-5.9264,-5.9258,-5.9272,-5.9301,-5.9321,-5.9294,-5.9309,-5.9335,-5.9312,-5.9341,-5.9339,-5.9337,-5.9179,-5.9163,-5.9359,-5.9359,-5.9359,-5.9359,-5.9359,-5.9359,-5.9347,-5.9402,-5.9378,-5.943,-5.9417,-5.9448,-5.9452,-5.9453,-5.9449,-5.9484,-5.95,-5.9481,-5.9467,-5.948,-5.9496,-5.9488,-5.9497,-5.9534,-5.9518,-5.937,-5.9348,-5.9327,-5.9312,-5.9537,-5.9537,-5.9674,-5.9675,-5.9676]}]]